Hourly Weather Bolshie Ostrogi

Today, 3 August, Tuesday

Time Temperature Precipitation Wind Pressure Humidity
00:00 +15°C° 0 mm 5 mps 738 mmHg 88%
01:00 +15°C° 0 mm 4 mps 738 mmHg 89%
02:00 +15°C° 0 mm 4 mps 738 mmHg 88%
03:00 +14°C° 0 mm 4 mps 738 mmHg 91%
04:00 +13°C° 0 mm 3 mps 739 mmHg 94%
05:00 +13°C° 0 mm 3 mps 739 mmHg 98%
06:00 +14°C° 0 mm 3 mps 739 mmHg 87%
07:00 +17°C° 0 mm 4 mps 740 mmHg 77%
08:00 +18°C° 0 mm 4 mps 740 mmHg 66%
09:00 +19°C° 0.1 mm 4 mps 740 mmHg 62%
10:00 +20°C° 0.1 mm 5 mps 741 mmHg 57%
11:00 +21°C° 0.1 mm 5 mps 741 mmHg 53%
12:00 +22°C° 0.1 mm 5 mps 741 mmHg 50%
13:00 +22°C° 0.1 mm 5 mps 741 mmHg 48%
14:00 +23°C° 0.1 mm 5 mps 741 mmHg 45%
15:00 +22°C° 0 mm 5 mps 741 mmHg 47%
16:00 +21°C° 0 mm 4 mps 741 mmHg 50%
17:00 +20°C° 0 mm 4 mps 741 mmHg 53%
18:00 +19°C° 0 mm 4 mps 741 mmHg 58%
19:00 +18°C° 0 mm 3 mps 741 mmHg 63%
20:00 +17°C° 0 mm 3 mps 742 mmHg 68%
21:00 +16°C° 0 mm 3 mps 742 mmHg 73%
22:00 +15°C° 0 mm 2 mps 742 mmHg 78%
23:00 +14°C° 0 mm 2 mps 742 mmHg 82%

Tomorrow, 4 August, Wednesday

Time Temperature Precipitation Wind Pressure Humidity
00:00 +14°C° 0 mm 2 mps 743 mmHg 84%
01:00 +13°C° 0 mm 2 mps 743 mmHg 86%
02:00 +13°C° 0 mm 2 mps 743 mmHg 87%
03:00 +13°C° 0 mm 2 mps 743 mmHg 88%
04:00 +13°C° 0 mm 2 mps 743 mmHg 89%
05:00 +13°C° 0 mm 2 mps 744 mmHg 90%
06:00 +15°C° 0 mm 2 mps 744 mmHg 81%
07:00 +17°C° 0 mm 2 mps 744 mmHg 73%
08:00 +19°C° 0 mm 3 mps 744 mmHg 64%
09:00 +20°C° 0 mm 3 mps 745 mmHg 59%
10:00 +21°C° 0 mm 3 mps 745 mmHg 54%
11:00 +22°C° 0 mm 3 mps 745 mmHg 48%
12:00 +22°C° 0.2 mm 3 mps 745 mmHg 50%
13:00 +22°C° 0.2 mm 4 mps 745 mmHg 51%
14:00 +22°C° 0.2 mm 4 mps 745 mmHg 53%
15:00 +22°C° 0.1 mm 3 mps 744 mmHg 53%
16:00 +22°C° 0.1 mm 3 mps 744 mmHg 53%
17:00 +22°C° 0.1 mm 3 mps 744 mmHg 54%
18:00 +20°C° 0 mm 2 mps 744 mmHg 61%
19:00 +19°C° 0 mm 1 mps 744 mmHg 67%
20:00 +18°C° 0 mm 1 mps 744 mmHg 74%
21:00 +16°C° 0 mm 1 mps 744 mmHg 75%
22:00 +16°C° 0 mm 1 mps 744 mmHg 76%
23:00 +15°C° 0 mm 2 mps 744 mmHg 77%

Day after tomorrow, 5 August, Thursday

Time Temperature Precipitation Wind Pressure Humidity
00:00 +15°C° 0.2 mm 2 mps 744 mmHg 79%
01:00 +15°C° 0.2 mm 2 mps 744 mmHg 81%
02:00 +15°C° 0.2 mm 2 mps 744 mmHg 83%
03:00 +15°C° 1.7 mm 2 mps 744 mmHg 88%
04:00 +15°C° 1.7 mm 2 mps 743 mmHg 92%
05:00 +14°C° 1.7 mm 2 mps 743 mmHg 97%
06:00 +13°C° 3.4 mm 3 mps 743 mmHg 97%
07:00 +13°C° 3.4 mm 3 mps 743 mmHg 97%
08:00 +14°C° 3.4 mm 4 mps 743 mmHg 96%
09:00 +14°C° 0.4 mm 4 mps 742 mmHg 94%
10:00 +16°C° 0.4 mm 3 mps 742 mmHg 92%
11:00 +17°C° 0.4 mm 3 mps 742 mmHg 89%
12:00 +19°C° 0.1 mm 3 mps 742 mmHg 83%
13:00 +20°C° 0.1 mm 3 mps 742 mmHg 76%
14:00 +22°C° 0.1 mm 3 mps 741 mmHg 70%
15:00 +21°C° 0.5 mm 2 mps 741 mmHg 73%
16:00 +22°C° 0.5 mm 1 mps 741 mmHg 77%
17:00 +22°C° 0.5 mm 1 mps 741 mmHg 80%
18:00 +21°C° 0.7 mm 1 mps 741 mmHg 85%
19:00 +19°C° 0.7 mm 2 mps 740 mmHg 89%
20:00 +18°C° 0.7 mm 2 mps 740 mmHg 93%
21:00 +17°C° 0.4 mm 2 mps 740 mmHg 95%
22:00 +17°C° 0.4 mm 2 mps 740 mmHg 97%
23:00 +17°C° 0.4 mm 2 mps 740 mmHg 98%

6 August, Friday

Time Temperature Precipitation Wind Pressure Humidity
00:00 +17°C° 0.1 mm 2 mps 740 mmHg 98%
01:00 +17°C° 0.1 mm 2 mps 740 mmHg 97%
02:00 +17°C° 0.1 mm 3 mps 739 mmHg 96%
03:00 +17°C° 0.4 mm 3 mps 739 mmHg 96%
04:00 +15°C° 0.4 mm 4 mps 738 mmHg 96%
05:00 +15°C° 0.4 mm 4 mps 738 mmHg 96%
06:00 +16°C° 1 mm 5 mps 737 mmHg 95%
07:00 +16°C° 1 mm 5 mps 737 mmHg 94%
08:00 +17°C° 1 mm 5 mps 737 mmHg 93%
09:00 +19°C° 0.7 mm 5 mps 737 mmHg 91%
10:00 +20°C° 0.7 mm 5 mps 737 mmHg 90%
11:00 +21°C° 0.7 mm 4 mps 737 mmHg 89%
12:00 +22°C° 0.3 mm 5 mps 737 mmHg 86%
13:00 +22°C° 0.3 mm 5 mps 737 mmHg 84%
14:00 +23°C° 0.3 mm 5 mps 736 mmHg 81%
15:00 +22°C° 1.9 mm 5 mps 736 mmHg 84%
16:00 +21°C° 1.9 mm 5 mps 736 mmHg 87%
17:00 +20°C° 1.9 mm 5 mps 736 mmHg 90%
18:00 +20°C° 0.9 mm 4 mps 736 mmHg 92%
19:00 +19°C° 0.9 mm 4 mps 736 mmHg 94%
20:00 +19°C° 0.9 mm 3 mps 737 mmHg 97%
21:00 +19°C° 0.3 mm 3 mps 737 mmHg 97%
22:00 +19°C° 0.3 mm 3 mps 737 mmHg 97%
23:00 +18°C° 0.3 mm 3 mps 737 mmHg 97%

7 August, Saturday

Time Temperature Precipitation Wind Pressure Humidity
00:00 +18°C° 0.4 mm 3 mps 737 mmHg 97%
01:00 +17°C° 0.4 mm 3 mps 737 mmHg 97%
02:00 +17°C° 0.4 mm 3 mps 737 mmHg 97%
03:00 +17°C° 0 mm 2 mps 737 mmHg 96%
04:00 +17°C° 0 mm 2 mps 737 mmHg 96%
05:00 +17°C° 0 mm 2 mps 738 mmHg 95%
06:00 +18°C° 0 mm 2 mps 738 mmHg 93%
07:00 +19°C° 0 mm 2 mps 738 mmHg 91%
08:00 +20°C° 0 mm 2 mps 738 mmHg 88%
09:00 +21°C° 0.1 mm 2 mps 738 mmHg 85%
10:00 +22°C° 0.1 mm 3 mps 738 mmHg 81%
11:00 +24°C° 0.1 mm 3 mps 738 mmHg 77%
12:00 +24°C° 0.2 mm 3 mps 738 mmHg 77%
13:00 +24°C° 0.2 mm 3 mps 738 mmHg 78%
14:00 +24°C° 0.2 mm 3 mps 738 mmHg 78%
15:00 +24°C° 0.5 mm 3 mps 738 mmHg 81%
16:00 +22°C° 0.5 mm 3 mps 739 mmHg 84%
17:00 +23°C° 0.5 mm 2 mps 739 mmHg 86%
18:00 +21°C° 0.5 mm 2 mps 739 mmHg 88%
19:00 +20°C° 0.5 mm 2 mps 739 mmHg 90%
20:00 +20°C° 0.5 mm 1 mps 739 mmHg 92%
21:00 +19°C° 0.4 mm 2 mps 740 mmHg 93%
22:00 +18°C° 0.4 mm 2 mps 740 mmHg 93%
23:00 +17°C° 0.4 mm 2 mps 740 mmHg 94%

8 August, Sunday

Time Temperature Precipitation Wind Pressure Humidity
00:00 +17°C° 0 mm 2 mps 740 mmHg 94%
01:00 +16°C° 0 mm 2 mps 741 mmHg 94%
02:00 +16°C° 0 mm 2 mps 741 mmHg 94%
03:00 +15°C° 0 mm 2 mps 741 mmHg 94%
04:00 +15°C° 0 mm 2 mps 741 mmHg 95%
05:00 +15°C° 0 mm 2 mps 741 mmHg 95%
06:00 +16°C° 0 mm 2 mps 742 mmHg 91%
07:00 +17°C° 0 mm 2 mps 742 mmHg 88%
08:00 +18°C° 0 mm 3 mps 742 mmHg 85%
09:00 +19°C° 0 mm 2 mps 742 mmHg 79%
10:00 +21°C° 0 mm 2 mps 743 mmHg 74%
11:00 +23°C° 0 mm 2 mps 743 mmHg 68%
12:00 +23°C° 0 mm 2 mps 743 mmHg 66%
13:00 +24°C° 0 mm 2 mps 744 mmHg 64%
14:00 +24°C° 0 mm 3 mps 744 mmHg 63%
15:00 +24°C° 0 mm 3 mps 744 mmHg 65%
16:00 +24°C° 0 mm 2 mps 744 mmHg 67%
17:00 +24°C° 0 mm 2 mps 744 mmHg 69%
18:00 +21°C° 0 mm 2 mps 744 mmHg 74%
19:00 +21°C° 0 mm 1 mps 745 mmHg 78%
20:00 +20°C° 0 mm 1 mps 745 mmHg 83%
21:00 +19°C° 0 mm 1 mps 745 mmHg 84%
22:00 +19°C° 0 mm 1 mps 745 mmHg 85%
23:00 +18°C° 0 mm 1 mps 746 mmHg 86%
Show more

We Need Your Consent

Meteoprog and our Service Providers may store and access personal data such as cookies, device identifiers or other similar technologies on your device and process such data to personalise content and ads, as well as provide social media features and to analyse the traffic.

  • Store and/or access information on your device

    Cookies, device identifiers or other information can be stored or accessed on your device for the purposes indicated above.

  • Personalised ads and content, ad and content measurement, audience insights, and products development

    Ads and content can be personalised based on a profile. More data can be added to better personalise ads and content. Ad and content performance can be measured. Insights about the audience who saw the ads and content can be derived. Such data can be used to develop or improve user’s experience, systems and software.

By clicking ‘I Agree’ you will allow the use of indicated cookies, device identifiers, web beacons or other similar technologies. Your settings can be changed in the browser on your device.

For certain purposes, legitimate interests may be relied on, rather than consent. You can read more about this in our Privacy and Cookie Policy.